Eau Claire, WI

10:18 AM CDT on April 20, 2018 (GMT -0500)
Chippewa Valley Regional

Weather History for KEAU - July, 2013

Change the Weather History Date:

Thursday, July 18, 2013

  Actual Average Record
Temperature  
Mean Temperature 86 °F 72 °F  
Max Temperature 97 °F 83 °F 102 °F (1964)
Min Temperature 74 °F 61 °F 48 °F (2000)
Degree Days  
Heating Degree Days 0 0  
Month to date heating degree days 0 0  
Since 1 June heating degree days 63 62  
Since 1 July heating degree days 0 0  
Cooling Degree Days 21 7  
Month to date cooling degree days 198 125  
Year to date cooling degree days 320 277  
Since 1 June cooling degree days 288 245  
Growing Degree Days 34 (Base 50)    
Moisture  
Dew Point 68 °F    
Average Humidity 64    
Maximum Humidity 93    
Minimum Humidity 35    
Precipitation  
Precipitation 0.00 in 0.12 in 2.94 in (1971)
Month to date precipitation 0.14 2.23  
Year to date precipitation 26.05 16.00  
Snow  
Snow 0.00 in 0.00 in 0.00 in ()
Month to date snowfall 0.0 0.0  
Since 1 June snowfall 0.0 0.0  
Since 1 July snowfall 0.0 0.0  
Snow Depth 0.00 in    
Sea Level Pressure  
Sea Level Pressure 29.94 in    
Wind  
Wind Speed 11 mph (SW)    
Max Wind Speed 23 mph    
Max Gust Speed 33 mph    
Visibility 10 miles    
Events      
T = Trace of Precipitation, MM = Missing Value Source: NWS Daily Summary

Daily Weather History Graph

Daily Weather History Graph

Search for Another Location

Airport or City:

Astronomy

Jul. 18, 2013 Rise Set
Actual Time 5:37 AM CDT 8:46 PM CDT
Civil Twilight 5:01 AM CDT 9:22 PM CDT
Nautical Twilight 4:15 AM CDT 10:07 PM CDT
Astronomical Twilight 3:20 AM CDT 11:02 PM CDT
Moon 4:42 PM CDT (7/18) 1:30 AM CDT (7/18)
Length of Visible Light 16h 20m
Length of Day
15h 09m
Waxing Gibbous, 77% of the Moon is Illuminated
Jul 18
Waxing Gibbous
Jul 22
Full
Jul 29
Last Quarter
Aug 6
New
Aug 14
First Quarter

Hourly Weather History & Observations

Time (CDT) Temp. Heat Index Dew Point Humidity Pressure Visibility Wind Dir Wind Speed Gust Speed Precip Events Conditions
12:56 AM 75.0 °F - 69.1 °F 82% 30.10 in 10.0 mi Calm Calm - N/A   Clear
1:56 AM 73.9 °F - 71.1 °F 91% 30.09 in 10.0 mi Calm Calm - N/A   Clear
2:56 AM 77.0 °F - 70.0 °F 79% 30.08 in 10.0 mi Calm Calm - N/A   Clear
3:56 AM 75.0 °F - 70.0 °F 84% 30.07 in 10.0 mi SSW 4.6 mph - N/A   Clear
4:56 AM 75.0 °F - 70.0 °F 84% 30.06 in 10.0 mi SSW 4.6 mph - N/A   Clear
5:56 AM 73.9 °F - 70.0 °F 87% 30.05 in 10.0 mi SSW 4.6 mph - N/A   Clear
6:56 AM 77.0 °F - 71.1 °F 82% 30.04 in 10.0 mi SW 3.5 mph - N/A   Clear
7:56 AM 81.0 °F 84.9 °F 71.1 °F 72% 30.04 in 10.0 mi SSW 5.8 mph - N/A   Clear
8:56 AM 84.9 °F 89.4 °F 70.0 °F 61% 30.03 in 10.0 mi WSW 9.2 mph 17.3 mph N/A   Clear
9:56 AM 89.1 °F 94.1 °F 70.0 °F 53% 30.00 in 10.0 mi WSW 8.1 mph - N/A   Clear
10:56 AM 91.0 °F 95.6 °F 69.1 °F 48% 29.98 in 10.0 mi SW 13.8 mph - N/A   Clear
11:56 AM 91.9 °F 95.9 °F 68.0 °F 45% 29.97 in 10.0 mi SW 15.0 mph 24.2 mph N/A   Clear
12:56 PM 93.9 °F 98.6 °F 68.0 °F 43% 29.95 in 10.0 mi SW 16.1 mph 24.2 mph N/A   Clear
1:56 PM 93.0 °F 96.4 °F 66.9 °F 42% 29.92 in 10.0 mi SW 17.3 mph 24.2 mph N/A   Mostly Cloudy
2:56 PM 96.1 °F 98.8 °F 64.9 °F 36% 29.89 in 10.0 mi SSW 21.9 mph 28.8 mph N/A   Clear
3:56 PM 95.0 °F 99.0 °F 66.9 °F 40% 29.86 in 10.0 mi SW 19.6 mph 27.6 mph N/A   Clear
4:56 PM 93.9 °F 97.0 °F 66.0 °F 40% 29.85 in 10.0 mi SW 18.4 mph 27.6 mph N/A   Partly Cloudy
5:56 PM 93.0 °F 95.9 °F 66.0 °F 41% 29.82 in 10.0 mi SW 16.1 mph 28.8 mph N/A   Partly Cloudy
6:56 PM 91.9 °F 95.4 °F 66.9 °F 44% 29.80 in 10.0 mi SW 17.3 mph 24.2 mph N/A   Partly Cloudy
7:56 PM 90.0 °F 92.8 °F 66.9 °F 46% 29.78 in 10.0 mi SW 11.5 mph 19.6 mph N/A   Clear
8:56 PM 87.1 °F 89.9 °F 66.9 °F 51% 29.78 in 10.0 mi SW 12.7 mph - N/A   Clear
9:56 PM 86.0 °F 88.8 °F 66.9 °F 53% 29.78 in 10.0 mi SW 10.4 mph - N/A   Clear
10:56 PM 84.9 °F 87.6 °F 66.9 °F 55% 29.78 in 10.0 mi SSW 11.5 mph - N/A   Clear
11:56 PM 84.0 °F 86.5 °F 66.9 °F 56% 29.76 in 10.0 mi SW 12.7 mph - N/A   Clear